Chester, SC

8:36 AM EDT on October 16, 2019 (GMT -0400)
Chester

Weather History for KDCM - August, 2019

Change the Weather History Date:

Saturday, August 24, 2019

  Actual Average (WUND) Record (WUND)
Temperature  
Mean Temperature 68 °F -  
Max Temperature 71 °F - - (-1)
Min Temperature 62 °F - - (-1)
Cooling Degree Days 2    
Growing Degree Days 18 (Base 50)    
Moisture  
Dew Point 68 °F    
Average Humidity 98    
Maximum Humidity 100    
Minimum Humidity 88    
Precipitation  
Precipitation 0.16 in - - ()
Sea Level Pressure  
Sea Level Pressure 30.10 in    
Wind  
Wind Speed 5 mph (NNE)    
Max Wind Speed 14 mph    
Max Gust Speed 20 mph    
Visibility 7 miles    
Events Rain , Thunderstorm    
Averages and records for this station are not official NWS values.
T = Trace of Precipitation, MM = Missing Value Source: NWS Daily Summary

Daily Weather History Graph

Daily Weather History Graph

Search for Another Location

Airport or City:

Astronomy

Aug. 24, 2019 Rise Set
Actual Time 6:51 AM EDT 8:02 PM EDT
Civil Twilight 6:25 AM EDT 8:28 PM EDT
Nautical Twilight 5:54 AM EDT 8:59 PM EDT
Astronomical Twilight 5:21 AM EDT 9:31 PM EDT
Moon 12:48 AM EDT (8/24) 3:09 PM EDT (8/24)
Length of Visible Light 14h 02m
Length of Day
13h 10m
Last Quarter, 39% of the Moon is Illuminated
Aug 24
Last Quarter
Aug 30
New
Sep 5
First Quarter
Sep 14
Full
Sep 21
Last Quarter

Hourly Weather History & Observations

Time (EDT) Temp. Dew Point Humidity Pressure Visibility Wind Dir Wind Speed Gust Speed Precip Events Conditions
12:15 AM 69.8 °F 69.8 °F 100% 30.08 in 10.0 mi Calm Calm - N/A   Mostly Cloudy
12:35 AM 69.8 °F 69.8 °F 100% 30.07 in 10.0 mi Calm Calm - N/A Thunderstorm Scattered Clouds
1:15 AM 69.8 °F 69.8 °F 100% 30.06 in 10.0 mi Calm Calm - N/A   Scattered Clouds
1:35 AM 69.8 °F 69.8 °F 100% 30.07 in 10.0 mi Calm Calm - N/A   Mostly Cloudy
1:55 AM 69.8 °F 69.8 °F 100% 30.06 in 10.0 mi Calm Calm - N/A   Mostly Cloudy
2:15 AM 69.8 °F 69.8 °F 100% 30.05 in 10.0 mi Calm Calm - N/A   Overcast
2:35 AM 69.8 °F 69.8 °F 100% 30.05 in 10.0 mi Calm Calm - N/A   Overcast
2:55 AM 69.8 °F 69.8 °F 100% 30.04 in 10.0 mi WSW 3.5 mph - N/A   Overcast
3:15 AM 71.6 °F 71.6 °F 100% 30.02 in 10.0 mi WSW 4.6 mph - N/A   Overcast
4:15 AM 71.6 °F 71.6 °F 100% 30.01 in 10.0 mi Calm Calm - N/A   Mostly Cloudy
4:35 AM 71.6 °F 71.6 °F 100% 30.02 in 10.0 mi North 4.6 mph - N/A   Overcast
4:55 AM 71.6 °F 71.6 °F 100% 30.01 in 10.0 mi North 4.6 mph - N/A   Overcast
5:35 AM 69.8 °F 69.8 °F 100% 30.02 in 10.0 mi East 3.5 mph - N/A   Mostly Cloudy
5:55 AM 71.6 °F 71.6 °F 100% 30.02 in 10.0 mi East 3.5 mph - N/A   Mostly Cloudy
6:15 AM 71.6 °F 71.6 °F 100% 30.03 in 10.0 mi NE 3.5 mph - N/A   Overcast
6:35 AM 71.6 °F 71.6 °F 100% 30.05 in 10.0 mi NE 3.5 mph - N/A   Overcast
6:55 AM 71.6 °F 71.6 °F 100% 30.06 in 10.0 mi Calm Calm - N/A   Overcast
7:15 AM 71.6 °F 71.6 °F 100% 30.06 in 10.0 mi Calm Calm - N/A   Overcast
7:35 AM 71.6 °F 71.6 °F 100% 30.07 in 10.0 mi ESE 4.6 mph - N/A   Overcast
7:55 AM 71.6 °F 71.6 °F 100% 30.08 in 10.0 mi ESE 3.5 mph - N/A   Overcast
8:15 AM 71.6 °F 71.6 °F 100% 30.09 in 10.0 mi Calm Calm - N/A   Overcast
8:35 AM 71.6 °F 71.6 °F 100% 30.09 in 10.0 mi Calm Calm - N/A   Overcast
9:15 AM 71.6 °F 71.6 °F 100% 30.11 in 2.5 mi Calm Calm - N/A   Overcast
9:35 AM 71.6 °F 71.6 °F 100% 30.11 in 5.0 mi NE 3.5 mph - N/A Rain Rain
9:55 AM 71.6 °F 71.6 °F 100% 30.11 in 4.0 mi ENE 4.6 mph - 0.03 in Rain Light Rain
10:15 AM 71.6 °F 71.6 °F 100% 30.12 in 3.0 mi NE 9.2 mph 17.3 mph 0.03 in Rain Rain
10:35 AM 69.8 °F 69.8 °F 100% 30.13 in 4.0 mi NNE 6.9 mph - 0.08 in Rain Rain
10:55 AM 69.8 °F 69.8 °F 100% 30.13 in 4.0 mi NNE 9.2 mph - 0.13 in Rain Rain
11:35 AM 69.8 °F 69.8 °F 100% 30.13 in 4.0 mi NNE 11.5 mph - N/A   Overcast
11:55 AM 69.8 °F 69.8 °F 100% 30.13 in 4.0 mi North 11.5 mph - N/A   Overcast
12:15 PM 69.8 °F 69.8 °F 100% 30.14 in 2.0 mi North 10.4 mph - N/A   Overcast
12:35 PM 68.0 °F 68.0 °F 100% 30.14 in 2.0 mi NNE 9.2 mph - N/A   Overcast
12:55 PM 68.0 °F 68.0 °F 100% 30.13 in 2.0 mi NNE 10.4 mph - N/A   Overcast
1:15 PM 68.0 °F 68.0 °F 100% 30.13 in 1.8 mi North 11.5 mph 17.3 mph N/A Rain Light Rain
1:35 PM 68.0 °F 68.0 °F 100% 30.13 in 1.8 mi NNE 12.7 mph 18.4 mph N/A Rain Light Rain
1:55 PM 66.2 °F 66.2 °F 100% 30.13 in 2.0 mi NNE 10.4 mph - N/A   Overcast
2:15 PM 66.2 °F 66.2 °F 100% 30.12 in 3.0 mi NNE 10.4 mph - N/A   Overcast
2:55 PM 66.2 °F 66.2 °F 100% 30.13 in 5.0 mi NNE 11.5 mph 19.6 mph N/A   Overcast
3:15 PM 66.2 °F 66.2 °F 100% 30.12 in 5.0 mi NNE 12.7 mph 17.3 mph N/A   Overcast
3:35 PM 68.0 °F 66.2 °F 94% 30.12 in 7.0 mi North 11.5 mph - N/A   Overcast
3:55 PM 66.2 °F 64.4 °F 94% 30.12 in 7.0 mi North 13.8 mph 18.4 mph N/A   Overcast
4:15 PM 68.0 °F 64.4 °F 88% 30.12 in 7.0 mi NNE 9.2 mph - N/A   Overcast
4:35 PM 66.2 °F 64.4 °F 94% 30.11 in 7.0 mi NNE 12.7 mph 17.3 mph N/A   Overcast
4:55 PM 68.0 °F 64.4 °F 88% 30.11 in 7.0 mi NNE 13.8 mph 18.4 mph N/A   Overcast
5:15 PM 68.0 °F 64.4 °F 88% 30.10 in 7.0 mi NE 10.4 mph 17.3 mph N/A   Overcast
5:35 PM 66.2 °F 64.4 °F 94% 30.11 in 7.0 mi NNE 13.8 mph 18.4 mph N/A   Overcast
5:55 PM 66.2 °F 64.4 °F 94% 30.11 in 7.0 mi NNE 11.5 mph 16.1 mph N/A   Overcast
6:15 PM 66.2 °F 64.4 °F 94% 30.11 in 10.0 mi NNE 10.4 mph - N/A   Overcast
6:35 PM 66.2 °F 64.4 °F 94% 30.11 in 7.0 mi NNE 9.2 mph - N/A   Overcast
6:55 PM 66.2 °F 64.4 °F 94% 30.12 in 5.0 mi NE 8.1 mph 18.4 mph N/A   Overcast
7:35 PM 64.4 °F 62.6 °F 94% 30.13 in 7.0 mi NE 13.8 mph 18.4 mph N/A   Overcast
7:55 PM 64.4 °F 62.6 °F 94% 30.13 in 7.0 mi NE 9.2 mph - N/A   Overcast
8:15 PM 64.4 °F 62.6 °F 94% 30.14 in 7.0 mi NNE 9.2 mph - N/A   Overcast
8:35 PM 64.4 °F 62.6 °F 94% 30.14 in 7.0 mi NNE 9.2 mph - N/A   Overcast
8:55 PM 64.4 °F 62.6 °F 94% 30.14 in 7.0 mi NE 10.4 mph - N/A   Overcast
9:15 PM 64.4 °F 62.6 °F 94% 30.15 in 10.0 mi NE 11.5 mph 17.3 mph N/A   Overcast
9:55 PM 64.4 °F 62.6 °F 94% 30.16 in 10.0 mi NE 10.4 mph 16.1 mph N/A   Overcast
10:15 PM 64.4 °F 62.6 °F 94% 30.16 in 10.0 mi NE 9.2 mph - N/A   Overcast
10:35 PM 64.4 °F 62.6 °F 94% 30.17 in 7.0 mi NE 9.2 mph - N/A   Overcast
10:55 PM 64.4 °F 62.6 °F 94% 30.18 in 7.0 mi NNE 10.4 mph - N/A   Overcast
11:15 PM 64.4 °F 62.6 °F 94% 30.18 in 10.0 mi NE 11.5 mph - N/A Thunderstorm Overcast
11:35 PM 64.4 °F 62.6 °F 94% 30.18 in 7.0 mi NE 11.5 mph 17.3 mph N/A   Overcast
11:55 PM 62.6 °F 62.6 °F 100% 30.18 in 10.0 mi NNE 13.8 mph - N/A   Overcast